TimeEEST,TemperatureF,Dew PointF,Humidity,Sea Level PressureIn,VisibilityMPH,Wind Direction,Wind SpeedMPH,Gust SpeedMPH,PrecipitationIn,Events,Conditions,WindDirDegrees,DateUTC
12:20 AM,73.4,60.8,65,30.01,-9999.0,ENE,9.2,-,N/A,,Clear,60,2013-06-19 21:20:00
12:50 AM,73.4,60.8,65,30.01,-9999.0,ENE,8.1,-,N/A,,Clear,70,2013-06-19 21:50:00
1:20 AM,73.4,60.8,65,30.01,-9999.0,ENE,8.1,-,N/A,,Clear,70,2013-06-19 22:20:00
1:50 AM,73.4,60.8,65,30.01,-9999.0,NE,9.2,-,N/A,,Clear,50,2013-06-19 22:50:00
2:20 AM,73.4,59.0,61,29.98,-9999.0,NE,9.2,-,N/A,,Clear,50,2013-06-19 23:20:00
2:50 AM,73.4,60.8,65,29.98,-9999.0,NE,8.1,-,N/A,,Clear,50,2013-06-19 23:50:00
3:00 AM,73,60,55,29.99,6,NE,8.1,,,,,50,2013-06-20 00:00:00
3:20 AM,73.4,60.8,65,29.98,-9999.0,NE,9.2,-,N/A,,Clear,50,2013-06-20 00:20:00
3:50 AM,71.6,60.8,69,30.01,-9999.0,NE,6.9,-,N/A,,Clear,50,2013-06-20 00:50:00
4:20 AM,71.6,62.6,73,30.01,-9999.0,NE,6.9,-,N/A,,Clear,50,2013-06-20 01:20:00
4:50 AM,71.6,62.6,73,30.01,-9999.0,NE,6.9,-,N/A,,Clear,50,2013-06-20 01:50:00
5:20 AM,71.6,62.6,73,30.01,-9999.0,NE,5.8,-,N/A,,Clear,40,2013-06-20 02:20:00
5:50 AM,71.6,62.6,73,30.01,-9999.0,NNE,8.1,-,N/A,,Clear,30,2013-06-20 02:50:00
6:20 AM,71.6,62.6,73,30.01,-9999.0,NNE,9.2,-,N/A,,Clear,30,2013-06-20 03:20:00
6:50 AM,73.4,64.4,73,30.04,-9999.0,NE,10.4,-,N/A,,Clear,40,2013-06-20 03:50:00
7:20 AM,75.2,64.4,69,30.04,-9999.0,NNE,11.5,-,N/A,,Clear,30,2013-06-20 04:20:00
7:50 AM,75.2,62.6,65,30.04,-9999.0,NE,12.7,-,N/A,,Clear,40,2013-06-20 04:50:00
8:20 AM,77.0,60.8,57,30.04,6.2,NE,11.5,-,N/A,,Partly Cloudy,50,2013-06-20 05:20:00
8:50 AM,77.0,57.2,50,30.04,6.2,ENE,13.8,-,N/A,,Partly Cloudy,70,2013-06-20 05:50:00
9:00 AM,78,56,36,30.04,12,ENE,13.8,,,,Scattered Clouds,70,2013-06-20 06:00:00
9:20 AM,78.8,57.2,47,30.04,6.2,NE,12.7,-,N/A,,Partly Cloudy,50,2013-06-20 06:20:00
9:50 AM,78.8,57.2,47,30.04,-9999.0,ENE,13.8,-,N/A,,Clear,70,2013-06-20 06:50:00
10:20 AM,80.6,55.4,42,30.04,-9999.0,NE,12.7,-,N/A,,Clear,50,2013-06-20 07:20:00
10:50 AM,80.6,55.4,42,30.04,-9999.0,ENE,15.0,-,N/A,,Clear,70,2013-06-20 07:50:00
11:20 AM,82.4,55.4,39,30.04,-9999.0,NNE,16.1,-,N/A,,Clear,30,2013-06-20 08:20:00
11:50 AM,84.2,55.4,37,30.06,-9999.0,NE,13.8,-,N/A,,Clear,40,2013-06-20 08:50:00
12:20 PM,82.4,55.4,39,30.04,-9999.0,NNE,16.1,-,N/A,,Clear,30,2013-06-20 09:20:00
12:50 PM,82.4,53.6,37,30.06,-9999.0,NNE,17.3,-,N/A,,Clear,20,2013-06-20 09:50:00
1:20 PM,82.4,53.6,37,30.06,-9999.0,NE,16.1,-,N/A,,Clear,40,2013-06-20 10:20:00
1:50 PM,82.4,51.8,35,30.06,-9999.0,NNE,17.3,-,N/A,,Clear,30,2013-06-20 10:50:00
2:20 PM,84.2,50.0,30,30.04,-9999.0,NE,17.3,-,N/A,,Clear,40,2013-06-20 11:20:00
2:50 PM,82.4,50.0,32,30.04,-9999.0,NE,19.6,-,N/A,,Clear,40,2013-06-20 11:50:00
3:00 PM,83,49,21,30.05,12,NE,19.6,,,,,40,2013-06-20 12:00:00
3:20 PM,82.4,46.4,28,30.04,-9999.0,ENE,18.4,29.9,N/A,,Clear,60,2013-06-20 12:20:00
3:50 PM,82.4,48.2,30,30.04,-9999.0,ENE,18.4,-,N/A,,Clear,60,2013-06-20 12:50:00
4:20 PM,84.2,50.0,30,30.04,-9999.0,NE,17.3,-,N/A,,Clear,50,2013-06-20 13:20:00
4:50 PM,82.4,55.4,39,30.04,-9999.0,NNE,17.3,-,N/A,,Clear,20,2013-06-20 13:50:00
5:20 PM,82.4,55.4,39,30.04,-9999.0,NNE,19.6,-,N/A,,Clear,20,2013-06-20 14:20:00
5:50 PM,80.6,59.0,48,30.04,-9999.0,NNE,16.1,-,N/A,,Clear,20,2013-06-20 14:50:00
6:20 PM,80.6,57.2,45,30.04,6.2,NNE,17.3,-,N/A,,Partly Cloudy,20,2013-06-20 15:20:00
6:50 PM,78.8,59.0,51,30.04,6.2,NNE,16.1,-,N/A,,Partly Cloudy,30,2013-06-20 15:50:00
7:20 PM,78.8,59.0,51,30.04,6.2,NE,15.0,-,N/A,,Partly Cloudy,50,2013-06-20 16:20:00
7:50 PM,78.8,59.0,51,30.04,6.2,NE,15.0,-,N/A,,Partly Cloudy,40,2013-06-20 16:50:00
8:20 PM,78.8,60.8,54,30.04,6.2,NE,12.7,-,N/A,,Partly Cloudy,50,2013-06-20 17:20:00
8:50 PM,77.0,60.8,57,30.04,-9999.0,NE,11.5,-,N/A,,Clear,50,2013-06-20 17:50:00
9:00 PM,76,60,47,30.05,6,NE,11.5,,,,,50,2013-06-20 18:00:00
9:20 PM,75.2,60.8,61,30.04,-9999.0,NE,12.7,-,N/A,,Clear,40,2013-06-20 18:20:00
9:50 PM,75.2,60.8,61,30.06,-9999.0,NE,12.7,-,N/A,,Clear,50,2013-06-20 18:50:00
10:20 PM,73.4,62.6,69,30.06,-9999.0,NE,12.7,-,N/A,,Clear,50,2013-06-20 19:20:00
10:50 PM,73.4,62.6,69,30.06,-9999.0,NE,12.7,-,N/A,,Clear,50,2013-06-20 19:50:00
11:20 PM,73.4,62.6,69,30.06,-9999.0,NE,10.4,-,N/A,,Clear,50,2013-06-20 20:20:00
11:50 PM,73.4,62.6,69,30.06,-9999.0,NE,9.2,-,N/A,,Clear,50,2013-06-20 20:50:00